CAPE
1 268 743 883 10 0 13 40 37 70 81 100 121 50 95 131 139 49 295 336 405 749 1357 1697 1646 1947 1272 1648 1175 1631 1589 1485 1376 1406 1311 1186 1080 1070 1064 978 1031 1140 1150 1316 1436 1119 1179 730 772
106 753 881 320 0 1 3 15 35 39 78 192 136 88 40 48 162 331 287 521 413 723 1242 1740 1765 1755 1304 963 1145 1549 1738 1557 1332 1125 1062 1048 951 885 884 960 1138 1164 1277 1236 1328 1243 1159 1089 702
0 259 396 23 0 0 0 3 18 22 76 172 195 47 46 45 243 217 297 648 618 741 1048 1200 1765 1674 1575 1124 1140 1445 1591 1282 1291 1287 1174 905 1185 1052 988 921 990 1044 1058 898 916 1040 872 1201 854
199 509 131 13 3 0 0 5 13 49 287 350 300 42 57 102 174 207 599 787 607 767 1037 1519 1702 1845 1478 1211 2010 1850 1612 1453 1289 1662 1613 1353 1304 1129 1168 1309 1141 1005 1258 1050 986 1026 1135 991 1022
711 242 0 15 37 17 17 14 129 240 223 334 114 51 43 99 143 357 607 704 465 821 1409 1589 1891 2121 1807 1559 2028 1920 2000 2091 1724 1547 1578 1420 1280 1308 1344 1357 1253 1261 1117 1183 1098 1131 1230 897 912
7 2 0 0 20 79 46 35 327 359 337 238 133 43 29 205 221 295 492 574 631 872 1509 1707 1794 1905 1981 2165 2109 2079 2057 1968 1647 1553 1553 1269 1314 1201 1151 1306 1249 1443 1295 1097 1137 1175 1296 1058 824
0 3 0 0 0 48 157 214 241 269 178 150 87 56 54 170 225 284 340 475 778 1082 1432 1657 1774 1969 1953 2143 2104 1898 1835 1803 1623 1646 1426 1436 1322 1433 1397 1230 1017 1111 1316 970 997 1096 1165 1035 779
0 0 0 1 0 1 244 332 367 198 89 153 90 59 68 102 138 171 305 428 694 1044 1164 1019 1327 1597 1752 1746 1695 1428 1392 1372 1778 1670 1288 1162 1195 1278 737 1062 1103 1454 814 759 772 754 832 885 780
0 0 0 7 10 19 410 394 124 4 5 61 188 91 69 91 79 149 232 339 450 541 582 935 978 897 777 992 1576 1663 2034 1035 1304 1152 1386 1422 909 778 947 1000 952 808 293 847 600 732 510 910 929
0 0 0 5 21 57 341 413 142 6 3 94 94 74 152 114 91 25 59 82 100 254 527 644 577 637 791 993 1047 1281 1361 760 622 682 842 1112 668 705 952 894 587 490 8 9 3 52 296 599 649
0 0 0 8 68 168 206 301 69 32 52 141 100 130 209 186 168 109 95 135 90 225 496 662 468 982 884 546 847 778 1003 891 505 220 221 232 301 407 551 401 441 315 229 128 114 57 259 201 189
0 0 6 132 136 251 233 258 247 157 104 133 105 160 250 236 225 249 263 288 172 215 330 475 579 776 628 447 731 815 695 617 406 12 0 8 133 270 429 332 440 290 200 236 190 102 69 170 148
0 0 0 25 207 397 411 339 270 201 154 207 52 135 248 240 258 292 279 353 337 324 181 253 545 606 443 384 578 577 468 457 356 70 0 7 328 398 233 247 422 315 172 141 216 134 168 131 136
0 0 0 9 205 363 423 341 361 213 166 194 110 166 203 209 257 266 241 333 442 343 150 233 318 403 400 468 595 392 283 290 132 78 77 47 63 86 174 251 266 242 171 136 93 178 132 138 70
0 0 0 26 304 416 484 386 302 215 234 211 239 214 213 194 178 198 203 349 479 399 366 318 348 360 484 611 568 308 214 326 275 241 174 118 0 119 190 179 127 310 375 329 128 239 209 78 92
0 0 0 0 293 453 556 66 243 163 210 253 298 281 262 236 212 251 239 283 447 440 485 449 530 492 505 534 391 293 233 247 264 135 154 103 0 214 202 145 118 184 70 37 353 276 238 230 155
0 0 0 0 0 384 534 151 302 190 187 216 298 299 301 270 247 251 375 367 294 431 462 513 490 570 540 446 268 296 283 222 183 120 92 177 0 309 204 113 19 56 125 85 68 116 146 135 74
0 0 0 0 0 5 145 238 411 355 215 138 169 214 262 217 220 256 253 266 269 406 496 533 518 516 463 324 239 204 126 143 84 45 86 171 40 185 291 33 0 0 0 51 11 69 76 269 147
0 0 0 0 0 0 2 88 268 446 313 147 124 57 141 168 149 71 125 212 266 363 472 566 568 532 353 305 226 160 73 96 64 20 0 0 104 224 111 42 0 6 80 130 145 124 252 253 131
0 0 0 0 18 43 149 157 244 462 500 387 231 62 123 111 126 115 147 238 329 373 391 547 611 479 436 356 271 159 67 38 13 4 0 0 0 58 92 83 127 264 300 367 298 339 289 119 61
0 0 0 0 0 239 112 2 15 250 522 385 242 0 40 83 172 150 179 316 391 347 381 501 609 576 436 266 144 78 59 59 25 1 0 4 251 377 182 357 246 151 425 270 402 323 217 137 1
0 0 0 0 4 1 20 0 0 0 95 394 276 110 14 173 164 188 192 265 354 322 380 452 594 563 554 318 184 77 49 87 47 9 0 129 524 306 530 443 447 351 579 392 423 379 357 148 81
0 0 0 0 0 0 0 0 0 0 12 15 113 286 208 88 206 239 248 259 319 344 483 464 545 616 558 392 199 73 19 7 6 0 101 501 594 429 494 688 606 641 591 622 539 763 646 207 65
0 0 0 0 0 0 0 0 0 0 0 0 9 100 262 100 40 231 198 252 381 463 509 485 463 548 542 450 256 157 35 6 0 0 88 160 368 450 363 278 649 739 553 549 753 724 743 556 391
0 0 0 0 0 0 0 0 0 0 3 0 7 21 74 134 15 163 266 374 455 534 582 465 446 495 449 529 380 268 72 4 0 0 18 34 94 233 312 50 126 777 641 778 814 878 780 713 452
0 0 0 0 0 0 0 0 0 0 0 0 142 0 6 53 5 31 272 393 478 31 84 446 472 439 412 490 437 354 131 37 3 34 27 132 305 338 255 326 193 55 535 720 675 764 816 803 756
0 0 0 0 0 0 0 0 0 0 0 12 363 232 6 1 27 0 66 316 369 171 13 109 227 413 407 449 401 340 215 105 73 111 77 193 362 468 520 464 623 663 562 576 676 843 891 948 923
0 0 0 0 0 0 0 0 0 4 66 89 491 563 443 54 0 14 63 316 338 189 142 229 372 468 415 364 392 306 243 170 151 176 262 260 297 406 559 727 806 882 639 598 599 736 640 969 1037
0 0 0 0 0 0 0 0 0 123 86 202 555 659 498 203 58 22 185 490 425 268 35 248 410 456 452 370 322 323 283 174 197 276 387 302 282 401 529 717 664 392 202 105 84 79 531 1031 890
0 0 0 0 0 0 0 0 0 173 137 215 401 559 678 472 188 167 302 517 641 596 524 511 541 568 593 473 383 352 372 294 260 323 468 451 468 548 806 846 718 574 385 285 510 865 1082 1053 858
CIN
-54 -304 -222 -156 -61 -2 -42 -38 -102 -61 -70 -69 -83 -57 -44 -101 -70 -46 -200 -174 -142 -100 -15 -1 -3 -2 -18 -4 -22 -2 -3 -6 -12 -8 -7 -9 -16 -16 -10 -12 -13 -7 -6 -2 -4 -11 -10 -31 -36
-340 -230 -185 -125 -0 -7 -50 -93 -50 -87 -103 -89 -66 -38 -51 -77 -171 -152 -164 -122 -133 -108 -36 -2 -2 -3 -8 -16 -14 -6 -0 -6 -10 -14 -9 -11 -12 -14 -16 -11 -4 -8 -0 -0 -0 -7 -10 -12 -36
-0 -280 -104 -55 -0 -0 -12 -93 -88 -83 -107 -78 -60 -88 -96 -111 -143 -165 -155 -91 -91 -92 -56 -30 -2 -3 -5 -15 -13 -11 -5 -8 -12 -7 -5 -10 -2 -5 -7 -13 -12 -9 -6 -8 -7 -9 -10 -2 -24
-239 -168 -154 -24 -47 -0 -0 -116 -116 -66 -49 -66 -67 -81 -147 -194 -159 -153 -90 -62 -97 -82 -45 -12 -4 -1 -8 -17 -0 -2 -7 -5 -8 -0 -0 -2 -0 -5 -4 -2 -4 -6 -1 -2 -4 -6 -4 -6 -17
-187 -148 -0 -53 -66 -69 -95 -119 -102 -56 -57 -41 -50 -80 -123 -139 -161 -133 -92 -75 -117 -61 -8 -6 -0 -0 -3 -14 -0 -0 -0 -0 -0 -0 -0 -0 -0 -0 -0 -0 -1 -0 -0 -0 -1 -1 -0 -5 -13
-74 -63 -0 -0 -39 -91 -97 -107 -75 -52 -49 -65 -60 -84 -141 -120 -127 -124 -110 -86 -76 -60 -4 -0 -0 -0 -0 -0 -0 -0 -0 -0 -0 -0 -0 -2 -1 -0 -0 -0 -0 -0 -0 -0 -1 -1 -0 -0 -19
-0 -89 -0 -0 -0 -42 -49 -80 -57 -54 -59 -62 -98 -75 -156 -118 -104 -119 -116 -88 -47 -23 -7 -1 -3 -1 -0 -0 -0 -0 -0 -0 -0 -0 -0 -0 -0 -0 -0 -0 -0 -0 -0 -0 -1 -2 -1 -0 -23
-0 -0 -0 -16 -2 -7 -54 -60 -60 -64 -57 -84 -93 -70 -76 -138 -114 -130 -93 -67 -44 -19 -20 -28 -11 -6 -2 -1 -1 -4 -3 -2 -0 -0 -0 -3 -1 -0 -7 -0 -5 -0 -0 -1 -1 -3 -6 -3 -16
-17 -0 -0 -23 -35 -43 -78 -47 -77 -54 -76 -76 -71 -88 -132 -182 -163 -115 -89 -51 -44 -45 -47 -34 -28 -34 -50 -28 -1 -0 -0 -6 -0 -3 -0 -0 -3 -6 -1 -5 -5 -0 -11 -5 -6 -3 -6 -3 -6
-0 -0 -0 -19 -51 -67 -67 -59 -52 -28 -18 -70 -80 -153 -175 -178 -167 -175 -148 -125 -132 -101 -53 -60 -66 -69 -60 -27 -20 -10 -8 -22 -30 -24 -19 -9 -24 -21 -9 -10 -3 -11 -53 -87 -76 -55 -15 -2 -14
-0 -0 -0 -18 -52 -84 -64 -72 -98 -71 -64 -73 -67 -137 -155 -134 -103 -88 -98 -112 -137 -117 -74 -72 -79 -37 -50 -70 -45 -39 -20 -19 -34 -53 -60 -61 -64 -47 -35 -29 -11 -9 -24 -41 -43 -69 -44 -38 -39
-0 -0 -55 -55 -85 -65 -60 -80 -57 -76 -59 -79 -134 -142 -154 -141 -116 -73 -77 -93 -106 -122 -110 -89 -68 -51 -61 -72 -50 -27 -26 -31 -38 -28 -0 -15 -72 -61 -53 -47 -30 -26 -45 -55 -58 -89 -97 -58 -60
-0 -0 -0 -38 -70 -68 -80 -44 -51 -58 -117 -125 -185 -179 -125 -119 -107 -93 -97 -82 -96 -102 -124 -119 -74 -67 -83 -86 -56 -38 -41 -37 -38 -81 -0 -20 -58 -65 -79 -73 -60 -54 -67 -73 -62 -75 -89 -88 -65
-0 -0 -0 -45 -65 -76 -52 -65 -57 -87 -140 -144 -169 -137 -123 -113 -112 -113 -114 -78 -82 -92 -122 -119 -104 -95 -95 -82 -64 -52 -62 -55 -81 -87 -84 -95 -112 -102 -91 -77 -77 -87 -93 -98 -89 -65 -82 -95 -121
-0 -0 -0 -57 -63 -56 -74 -70 -65 -120 -163 -174 -174 -125 -127 -131 -140 -122 -118 -91 -91 -105 -110 -110 -106 -107 -93 -75 -73 -69 -75 -55 -52 -57 -67 -78 -0 -87 -72 -75 -112 -90 -96 -97 -112 -71 -72 -94 -112
-0 -0 -0 -0 -66 -64 -47 -26 -85 -169 -151 -144 -148 -155 -151 -139 -141 -117 -121 -96 -96 -103 -106 -106 -93 -99 -89 -72 -73 -67 -64 -61 -55 -61 -68 -85 -0 -84 -97 -83 -101 -112 -133 -150 -87 -65 -59 -52 -78
-0 -0 -0 -0 -0 -62 -50 -35 -98 -201 -169 -142 -141 -121 -138 -142 -153 -126 -109 -104 -125 -114 -109 -109 -110 -90 -84 -78 -74 -63 -54 -54 -53 -63 -66 -75 -0 -67 -72 -89 -155 -153 -118 -123 -112 -99 -83 -110 -145
-0 -0 -0 -0 -0 -33 -93 -78 -106 -195 -191 -135 -161 -146 -131 -152 -145 -142 -138 -134 -149 -133 -118 -102 -110 -86 -80 -83 -76 -82 -81 -55 -81 -78 -67 -74 -65 -66 -54 -126 -0 -0 -8 -134 -103 -87 -101 -80 -92
-0 -0 -0 -0 -0 -0 -39 -56 -83 -134 -224 -197 -182 -184 -178 -135 -120 -140 -155 -159 -169 -157 -130 -103 -93 -79 -81 -71 -85 -82 -89 -69 -77 -86 -7 -0 -76 -68 -74 -109 -0 -138 -109 -90 -97 -85 -54 -66 -113
-0 -0 -0 -0 -15 -101 -60 -64 -98 -151 -169 -179 -179 -184 -168 -159 -111 -146 -198 -180 -169 -142 -138 -125 -95 -79 -79 -81 -90 -77 -83 -87 -73 -73 -0 -0 -0 -73 -73 -69 -62 -61 -54 -67 -75 -60 -62 -91 -150
-0 -0 -0 -0 -0 -118 -119 -44 -128 -178 -218 -223 -224 -0 -214 -156 -104 -160 -184 -191 -179 -158 -145 -139 -108 -84 -81 -99 -91 -96 -87 -91 -92 -15 -0 -7 -63 -60 -64 -57 -54 -66 -53 -40 -52 -55 -67 -63 -52
-0 -0 -0 -0 -59 -25 -176 -0 -0 -0 -189 -195 -201 -249 -254 -168 -171 -185 -168 -183 -156 -156 -152 -162 -131 -93 -82 -87 -71 -82 -71 -55 -91 -66 -0 -50 -65 -58 -45 -45 -48 -53 -50 -44 -43 -55 -55 -76 -56
-0 -0 -0 -0 -6 -0 -0 -0 -0 -0 -124 -165 -181 -222 -224 -244 -168 -170 -204 -188 -189 -141 -152 -170 -146 -108 -84 -77 -67 -76 -99 -135 -111 -0 -43 -49 -61 -63 -45 -36 -44 -48 -42 -34 -44 -30 -37 -71 -83
-0 -0 -0 -0 -0 -0 -0 -0 -0 -0 -0 -0 -261 -251 -240 -273 -271 -203 -243 -192 -216 -179 -143 -132 -134 -117 -92 -75 -78 -74 -106 -154 -0 -0 -49 -42 -54 -60 -64 -61 -51 -45 -50 -39 -34 -38 -36 -56 -61
-0 -0 -0 -0 -0 -0 -0 -0 -0 -0 -113 -0 -163 -262 -251 -291 -313 -246 -240 -243 -242 -175 -165 -165 -158 -120 -113 -78 -80 -80 -107 -132 -0 -0 -82 -56 -54 -55 -49 -87 -79 -43 -43 -39 -43 -32 -38 -43 -54
-0 -0 -0 -0 -0 -0 -0 -0 -0 -29 -0 -0 -220 -11 -293 -299 -326 -293 -283 -272 -191 -140 -245 -217 -176 -126 -126 -101 -91 -86 -103 -157 -178 -110 -69 -49 -44 -39 -60 -58 -74 -84 -60 -51 -56 -41 -37 -38 -43
-0 -0 -0 -0 -0 -0 -0 -0 -0 -0 -103 -243 -177 -176 -38 -274 -300 -0 -354 -299 -214 -185 -256 -290 -205 -154 -140 -120 -121 -103 -103 -130 -134 -102 -88 -57 -60 -51 -54 -61 -58 -64 -69 -72 -60 -47 -35 -38 -40
-0 -0 -0 -0 -0 -0 -0 -0 -0 -27 -141 -208 -138 -117 -168 -307 -0 -335 -334 -300 -253 -250 -224 -308 -228 -152 -141 -134 -119 -114 -103 -115 -110 -88 -55 -51 -56 -51 -53 -50 -52 -72 -89 -90 -73 -58 -55 -38 -35
-0 -0 -0 -0 -0 -0 -0 -0 -0 -165 -249 -193 -146 -150 -147 -213 -330 -363 -293 -300 -264 -230 -215 -274 -229 -193 -172 -144 -144 -135 -108 -125 -98 -83 -56 -52 -63 -55 -47 -49 -59 -76 -97 -118 -120 -118 -58 -35 -37
-0 -0 -0 -0 -0 -0 -0 -0 -0 -213 -276 -259 -177 -146 -178 -220 -259 -312 -308 -267 -263 -250 -245 -223 -211 -204 -175 -157 -155 -127 -126 -120 -107 -98 -71 -61 -60 -59 -46 -54 -54 -71 -94 -91 -62 -34 -34 -35 -34
Wind_Speed
18 16 14 13 18 18 18 19 18 19 21 19 18 16 14 16 15 15 19 20 21 21 21 18 20 21 20 26 23 25 23 23 24 22 22 21 21 21 21 19 17 17 18 17 17 17 15 15 16
20 19 19 21 20 18 16 17 18 18 19 16 18 14 14 13 14 17 21 20 21 20 22 17 19 21 21 20 21 23 22 22 22 21 19 20 20 20 19 17 16 15 16 16 17 16 14 14 15
20 19 18 19 21 19 17 18 17 17 17 17 18 18 16 15 16 22 20 20 19 19 18 19 18 21 20 18 22 23 21 21 20 20 19 20 19 18 17 17 15 15 15 15 16 16 14 15 16
20 17 18 19 20 20 19 7 15 14 14 15 16 20 19 11 21 21 21 19 19 19 16 19 21 22 22 19 22 22 20 21 20 19 18 17 18 18 17 17 16 16 15 16 16 16 15 16 16
19 19 22 18 19 17 17 16 14 14 14 14 16 17 19 17 19 20 20 20 21 21 16 18 22 21 20 19 22 22 20 19 18 17 16 17 17 18 18 18 17 16 16 16 16 17 16 17 17
20 20 21 20 20 18 15 15 14 13 12 14 14 14 17 17 18 20 19 20 20 21 18 16 21 20 19 15 21 20 20 18 17 16 15 16 17 18 18 17 16 16 16 16 17 17 17 18 19
21 20 20 20 19 20 17 14 13 13 13 14 13 14 15 16 18 18 17 19 19 16 16 17 20 21 22 22 20 19 18 17 16 16 15 18 19 19 18 17 17 17 16 17 17 17 17 18 19
18 19 19 19 21 20 17 14 14 11 12 14 13 14 12 16 18 16 16 18 18 17 18 19 19 16 22 24 20 18 16 16 17 16 22 20 20 18 19 18 17 15 16 17 17 16 17 17 19
16 18 19 19 19 18 16 16 14 15 13 14 11 13 12 18 17 16 16 16 17 14 19 19 19 17 24 24 21 18 16 16 17 20 21 21 20 20 18 17 16 15 14 15 16 17 17 17 18
17 18 18 13 14 17 14 14 13 14 12 12 12 13 15 18 18 18 21 21 20 19 21 21 20 22 23 24 22 18 15 16 17 20 21 20 21 20 17 15 14 15 14 14 16 17 18 17 18
16 16 16 12 11 16 16 13 14 14 12 11 12 10 14 14 16 19 23 22 23 21 23 24 23 23 22 24 21 17 16 17 19 20 21 21 20 18 16 15 14 14 14 16 17 17 18 17 18
18 19 11 20 13 16 16 15 15 11 15 11 13 12 15 16 18 22 24 22 23 22 23 21 23 24 24 24 20 17 17 18 20 21 21 20 18 16 15 14 14 15 15 16 17 16 17 17 19
17 22 22 15 15 15 16 15 16 13 17 13 12 13 12 14 18 20 23 21 21 22 22 22 22 25 25 24 20 18 18 19 21 20 20 20 19 17 15 15 14 15 14 15 16 16 16 17 18
19 23 23 17 13 14 14 17 17 17 12 13 13 15 13 15 18 16 22 21 21 21 20 21 23 21 21 21 19 17 17 19 18 19 20 21 19 17 15 16 15 14 13 15 16 16 16 17 17
14 23 23 20 15 16 14 18 15 13 10 12 12 15 14 14 13 19 20 20 20 21 17 20 21 20 17 17 19 16 19 17 18 18 21 22 19 18 16 15 14 14 16 16 16 16 16 17 18
18 19 24 23 18 15 12 21 14 8 7 9 10 13 16 16 17 15 16 18 15 16 18 15 17 17 18 17 14 9 9 12 15 16 21 22 19 17 16 14 13 15 14 15 16 16 16 17 18
20 22 28 26 19 16 10 22 15 6 5 7 7 6 10 16 14 15 15 18 15 15 14 15 14 16 17 16 7 6 6 7 9 8 25 23 21 16 16 14 13 16 17 17 15 15 15 16 18
21 25 24 25 21 17 10 5 16 5 3 7 8 8 13 18 21 15 15 13 12 11 12 13 12 12 11 5 4 10 8 7 15 22 24 23 21 17 16 15 14 15 14 14 14 15 15 14 15
17 18 19 19 7 12 3 2 2 1 4 1 9 14 10 23 26 19 12 8 6 3 9 15 12 13 6 2 2 7 9 5 19 23 25 23 21 19 17 15 15 14 14 13 13 14 14 14 14
16 16 7 6 22 14 18 5 4 4 7 8 9 12 18 24 16 8 4 7 7 4 7 15 17 14 13 3 2 9 2 13 18 21 26 25 25 22 18 17 17 14 12 12 12 12 13 13 12
16 13 16 16 22 19 25 7 3 7 8 3 8 10 11 24 17 10 10 8 5 2 6 13 15 14 12 1 3 9 9 15 22 23 23 26 25 15 17 15 14 15 11 11 12 12 12 11 11
23 12 8 14 18 22 25 30 24 19 13 17 21 12 1 9 7 9 11 11 7 4 2 5 8 12 9 4 5 4 3 2 21 25 24 22 14 7 16 15 13 14 12 11 11 10 11 12 11
12 21 16 16 19 24 24 23 19 20 19 16 15 14 11 12 18 19 18 8 5 7 6 7 6 10 5 10 11 8 5 27 23 22 18 14 9 8 7 9 8 12 9 9 10 10 10 10 11
15 18 17 16 19 22 21 22 18 21 17 21 19 9 13 21 21 11 4 4 3 7 4 10 6 12 11 9 13 11 5 11 16 20 16 13 10 8 9 8 6 7 6 7 8 9 9 9 9
14 16 18 16 18 18 7 7 8 15 14 15 15 16 12 17 16 10 10 9 8 5 11 4 3 9 11 11 15 18 18 3 3 3 7 9 10 13 3 5 7 5 7 8 9 10 10 11 9
9 10 8 14 14 21 6 7 10 22 20 17 19 12 11 10 11 11 14 15 17 13 10 5 6 17 11 11 12 25 11 5 7 3 5 6 9 10 10 6 4 5 5 15 10 11 10 10 10
17 15 11 12 18 22 22 20 20 5 21 21 20 20 19 10 7 10 16 16 14 5 7 10 10 17 17 18 12 22 12 4 6 4 4 9 11 10 9 10 8 7 13 5 7 10 9 8 9
12 11 15 14 19 25 22 24 6 27 24 22 22 22 22 15 8 7 7 9 7 10 10 2 12 18 18 19 16 24 20 12 6 4 5 7 14 14 14 14 14 16 10 8 11 13 17 14 14
12 14 15 14 17 22 25 24 12 20 22 22 20 17 23 21 11 8 6 8 9 14 12 8 10 9 16 18 15 11 16 17 8 5 3 4 10 10 12 14 14 13 14 13 8 8 17 20 17
14 12 11 15 19 18 20 25 10 14 20 17 17 15 21 23 14 8 5 8 10 11 13 9 10 10 19 16 10 16 16 18 25 23 23 5 8 1 4 11 13 13 14 11 12 14 17 17 9
Wind_Direction
100 121 133 147 72 31 67 83 117 119 81 90 97 101 106 84 107 100 100 112 112 109 107 99 102 103 93 118 97 103 90 90 95 96 101 101 107 114 121 119 117 123 131 133 135 129 112 114 119
45 39 11 35 12 24 66 80 75 104 103 117 99 101 90 91 95 96 105 110 113 108 109 100 104 108 104 99 93 103 98 95 98 100 96 104 109 116 123 120 121 123 132 134 134 137 125 124 133
25 38 6 6 13 20 51 107 167 109 105 84 83 75 66 85 85 111 108 110 108 107 105 106 105 110 103 95 107 110 102 97 96 99 100 114 116 120 120 123 121 125 129 129 137 132 126 122 133
352 334 352 8 21 35 51 246 312 59 71 93 86 46 59 149 107 113 107 108 108 107 101 106 112 116 115 103 112 112 106 110 109 105 104 108 112 125 121 121 128 129 128 127 130 122 113 118 129
352 1 15 17 5 13 28 33 34 342 70 56 53 52 64 50 93 100 108 109 113 113 101 103 117 115 113 105 124 125 120 113 110 106 104 112 116 123 126 130 127 122 120 122 119 122 117 125 129
7 17 12 14 17 30 42 61 44 40 41 34 26 31 61 77 93 108 107 112 113 114 106 101 118 118 117 101 124 123 121 114 111 109 105 110 118 124 131 130 120 114 109 112 118 120 119 128 140
13 1 357 12 13 21 41 60 55 32 22 25 46 26 26 90 105 107 108 110 110 105 104 103 116 122 129 133 127 123 119 117 113 108 100 128 136 133 130 130 136 123 116 133 131 120 129 130 154
39 13 357 6 9 13 48 63 30 37 25 29 38 19 43 107 111 104 105 111 111 110 114 115 116 105 131 153 132 127 115 113 118 111 167 142 145 136 146 144 135 118 146 151 150 135 133 132 155
45 9 359 2 15 27 46 38 51 6 10 354 24 20 60 100 105 109 112 112 115 110 124 124 124 122 155 163 150 133 111 110 121 137 139 143 149 163 154 137 130 85 170 155 153 158 153 145 150
22 10 10 61 39 33 60 55 57 27 17 15 11 2 85 102 113 125 134 134 133 131 139 138 137 144 152 167 158 139 117 116 127 142 144 143 160 161 149 137 111 111 133 164 175 167 181 156 154
23 15 26 61 59 26 24 47 57 35 49 102 116 76 100 108 119 132 142 143 143 139 144 153 153 156 151 167 156 137 135 133 143 139 142 151 156 154 146 145 131 124 125 150 156 167 183 166 162
7 7 50 351 31 15 20 24 26 69 18 92 112 102 109 118 129 142 146 146 148 147 151 149 157 163 165 165 157 147 145 146 151 159 151 151 155 158 167 170 153 123 132 143 157 165 172 170 163
22 347 344 18 11 7 11 13 1 17 350 34 78 103 107 120 134 139 149 144 145 151 154 156 156 163 167 165 161 153 154 150 159 150 155 167 172 182 174 151 128 136 140 146 148 158 173 171 161
7 338 335 11 22 8 7 355 352 351 30 54 94 118 119 126 135 129 146 148 152 156 154 156 160 155 155 158 154 150 149 151 142 149 162 179 183 188 166 142 127 119 143 161 161 159 161 170 159
36 345 350 9 6 357 7 347 351 9 64 78 98 131 132 138 132 151 155 154 155 161 149 159 158 153 151 157 156 146 157 144 145 150 177 189 168 177 154 139 135 124 101 135 155 160 158 158 170
10 8 345 359 14 0 6 340 359 47 75 99 108 128 143 152 158 155 156 163 156 153 158 149 155 153 157 160 147 116 117 125 141 142 178 186 164 148 146 140 134 120 107 97 121 126 148 171 173
4 345 332 344 8 6 3 332 355 62 83 125 124 117 141 160 161 164 163 164 160 160 155 157 154 159 160 160 123 101 103 107 113 101 215 195 172 141 151 160 139 119 107 99 99 115 141 136 172
348 339 347 350 2 5 6 343 343 115 119 149 150 153 164 167 172 164 165 161 156 154 154 155 155 157 151 128 328 298 305 310 275 249 237 225 173 153 147 153 137 132 127 94 93 87 110 111 121
1 1 2 266 35 21 72 24 196 140 161 343 167 176 173 184 189 179 171 163 156 168 148 157 148 154 137 130 347 308 135 123 264 250 234 240 249 171 155 150 148 130 129 131 92 89 99 108 92
359 2 306 337 358 25 360 360 221 188 189 177 172 179 190 191 177 161 179 166 158 167 150 157 159 151 151 137 337 309 52 285 269 261 238 238 222 199 158 156 168 131 95 108 98 81 86 104 84
358 13 10 7 354 352 343 323 95 77 161 118 169 313 170 187 171 159 161 163 175 202 145 152 155 153 152 152 310 307 312 284 259 253 248 232 230 142 151 148 143 157 116 88 94 127 127 81 48
327 36 34 17 12 356 340 315 306 308 191 192 207 188 233 174 192 172 163 165 173 202 265 135 136 149 146 146 134 125 345 325 253 239 243 251 279 91 151 154 138 152 131 67 86 95 114 90 80
16 356 9 12 1 343 338 336 296 304 309 260 206 191 176 169 168 167 167 174 209 279 279 294 131 141 143 151 148 139 314 221 241 244 259 283 305 326 95 356 107 145 104 66 72 79 82 93 59
358 356 358 3 353 321 354 348 303 331 280 297 284 182 159 172 172 165 205 153 240 273 270 161 163 155 151 157 156 151 133 273 255 247 263 280 309 325 328 352 78 109 63 93 97 60 79 81 96
352 346 342 346 331 257 306 246 171 277 279 262 267 245 140 159 157 155 153 155 157 163 176 229 209 159 155 161 165 164 161 161 234 244 285 298 313 305 26 94 126 73 12 12 18 25 36 32 102
13 346 0 336 353 255 280 94 83 323 303 290 301 231 20 112 150 162 160 163 167 139 141 176 166 169 157 161 166 177 161 164 165 238 285 310 316 319 322 355 79 89 55 182 354 1 27 31 33
4 357 340 334 327 308 304 329 276 224 313 320 320 330 319 122 121 156 164 165 164 181 124 139 158 167 166 166 162 174 167 187 183 220 275 300 312 316 320 329 0 6 325 75 15 359 20 33 23
16 39 341 331 317 287 325 320 244 306 319 319 326 331 330 3 103 127 153 160 164 157 146 167 153 167 167 168 166 179 174 170 175 262 267 290 299 306 307 311 318 315 338 2 340 340 324 339 335
24 347 335 345 332 320 310 317 33 276 304 329 311 305 356 19 41 90 105 140 157 159 149 117 148 151 165 169 165 166 173 175 176 254 233 280 299 307 314 311 314 318 320 331 355 5 322 315 323
4 16 13 333 321 328 320 302 58 226 264 254 263 45 330 13 24 44 65 122 145 153 164 159 146 153 168 166 157 171 170 174 187 185 186 172 165 146 336 319 319 322 318 332 331 330 321 323 353